Cloud_Cover
2 5 89 99 42 3 2 2 11 30 22 30 48 19 6 2 0 0 4 3 9 4 36 10 0 3 5 37 100 100 100 100 100 100 100 100 100 100 99 100 98 100 100
0 3 4 2 0 0 15 7 3 6 4 12 16 3 0 0 0 0 9 4 0 7 1 5 0 0 4 8 100 100 100 94 100 100 100 100 100 100 100 100 100 99 100
10 0 0 0 5 10 2 0 8 11 3 8 1 1 5 8 15 13 4 1 4 0 0 2 5 0 4 28 58 65 100 73 25 5 5 63 96 41 9 80 96 100 100
22 10 12 0 9 8 0 7 8 3 3 0 5 2 9 0 0 3 4 0 0 4 0 2 2 3 18 70 97 100 100 100 100 100 100 100 97 62 100 95 99 100 100
13 57 8 0 0 4 0 0 5 12 10 11 8 6 4 8 5 5 5 2 2 4 5 5 5 5 91 5 42 85 100 100 100 100 100 100 100 100 100 100 100 100 100
100 7 0 0 0 0 0 3 3 2 2 3 0 0 4 3 5 3 2 0 0 2 1 70 7 5 8 37 5 5 4 33 100 75 100 100 100 100 100 100 100 100 100
64 4 1 3 5 13 2 0 0 2 4 4 4 5 5 5 5 0 0 0 0 0 0 0 0 3 5 16 14 16 95 100 87 94 87 94 77 95 26 10 75 100 100
10 5 11 5 4 2 4 4 4 5 37 5 5 5 5 5 5 4 2 4 5 0 5 5 55 100 62 35 48 25 71 53 33 91 80 86 73 4 5 5 5 41 100
4 0 12 26 33 6 5 5 5 5 5 5 5 5 5 13 16 65 5 9 25 7 6 88 8 85 86 70 5 5 5 5 5 20 40 74 5 3 5 5 5 5 5
0 0 4 5 14 68 72 97 87 13 5 6 59 54 9 5 8 53 99 86 54 100 100 92 25 5 5 5 5 5 5 5 28 100 55 50 78 65 47 8 5 5 6
0 0 0 0 3 5 17 67 90 100 100 9 5 5 28 5 28 100 45 100 46 100 100 100 100 17 5 5 5 5 5 7 100 89 98 41 5 5 17 12 72 5 7
0 0 0 0 0 5 5 4 12 54 57 26 89 35 87 5 6 5 8 6 86 100 100 100 100 99 5 72 98 77 78 75 82 88 46 55 31 47 93 5 100 93 100
0 0 0 0 0 0 5 5 23 40 18 17 11 9 5 45 17 96 96 84 19 100 100 91 65 74 91 22 96 100 37 100 98 97 97 81 66 5 100 33 100 100 33
0 0 0 0 0 0 0 28 18 8 31 97 3 5 5 83 87 95 12 92 100 55 6 93 89 32 72 95 19 47 67 70 66 67 94 62 100 45 21 87 100 38 3
0 0 0 0 0 0 0 2 28 2 66 24 88 12 0 72 13 75 5 66 85 98 57 100 42 35 52 66 50 34 48 100 81 95 100 100 100 59 18 92 96 5 1
0 0 0 0 0 0 6 2 0 3 0 38 97 10 6 36 0 77 29 65 48 16 8 41 69 90 55 100 92 100 96 100 100 80 100 100 100 77 5 25 7 5 3
0 0 0 0 0 0 0 0 0 0 94 87 98 0 0 8 3 0 12 99 0 35 70 89 94 27 68 93 99 98 100 100 97 100 100 92 70 96 18 5 6 3 1
2 0 0 0 0 0 0 0 15 40 44 63 98 100 0 5 0 0 89 50 37 100 99 92 39 28 31 61 40 2 99 97 35 48 37 20 89 92 87 18 2 0 0
0 0 0 0 0 0 0 0 0 0 32 95 84 100 0 18 0 0 67 28 0 100 18 5 7 92 98 94 34 13 80 80 23 0 99 90 18 92 75 100 82 27 0
5 1 0 0 0 0 0 0 0 15 16 52 79 78 0 77 36 4 96 0 0 86 9 11 40 85 100 67 3 81 0 11 0 0 4 23 16 0 43 80 99 40 0
5 5 0 0 0 0 0 0 0 4 2 19 24 0 3 2 52 4 44 40 31 3 3 25 6 93 7 5 4 26 7 40 48 0 0 0 3 4 22 46 0 21 18
7 5 5 1 0 2 5 0 2 4 15 6 18 11 0 0 0 65 1 1 0 4 96 5 5 9 14 3 5 2 5 4 21 0 3 5 6 5 20 6 11 2 0
4 4 5 4 0 4 0 1 0 0 5 17 3 2 97 3 0 0 0 0 0 16 0 18 41 27 5 19 0 4 0 0 1 75 7 51 19 7 26 2 4 17 5
4 0 0 0 2 0 0 5 5 5 5 19 30 86 7 1 0 0 0 0 0 42 0 10 37 8 5 0 0 0 2 0 0 0 12 84 19 28 22 5 54 100 32
0 0 0 0 0 0 0 5 5 5 5 0 39 100 100 4 0 0 0 0 0 2 13 5 45 5 5 0 0 0 5 0 0 5 5 2 16 43 72 5 19 31 49
0 0 0 0 0 0 2 5 5 5 5 2 5 90 68 100 4 0 0 0 4 0 6 5 60 61 8 0 0 0 3 0 2 38 5 87 5 11 28 12 24 20 59